Regional Weather Roundup
Issued by NWS

Home | Current Version | Previous Version | Text Only | Print | Product List | Glossary On
Versions: 1 2 3 4 5 6 7 8 9 10 11 12 13 14 15 16 17 18 19 20 21 22 23 24 25 26 27 28 29 30 31 32 33 34 35 36 37 38 39 40 41 42 43 44 45 46 47 48 49 50
000
ASUS43 KLSX 180707
RWRMO

WEATHER SUMMARY FOR MISSOURI
NATIONAL WEATHER SERVICE SPRINGFIELD MO
100 AM CST SAT NOV 18 2017

NOTE: "FAIR" INDICATES FEW OR NO CLOUDS BELOW 12,000 FEET WITH NO
       SIGNIFICANT WEATHER AND/OR OBSTRUCTIONS TO VISIBILITY.
       CURRENT SKY AND/OR WEATHER CONDITIONS ARE NOT AVAILABLE FOR
       CHILLICOTHE AND FARMINGTON.

MOZ001>031-035>038-043-044-053-054-180800-
...NORTHERN AND WESTERN MISSOURI...

CITY           SKY/WX    TMP DP  RH WIND       PRES   REMARKS
KANSAS CTY INT DRZL/FOG  54  54 100 N10       29.41S VSB 1/4
KANSAS C DTWN  CLOUDY    62  58  86 E3        29.38F
LEE`S SUMMIT   CLOUDY    60  60 100 N5        29.39F
ST JOSEPH      CLOUDY    56  55  97 NE3       29.44F FOG
CHILLICOTHE      N/A     52  52 100 N5        29.45F
KIRKSVILLE     CLOUDY    56  56 100 N9        29.45F

$$
MOZ066>068-077>081-088>096-101>105-180800-
...SOUTHWEST MISSOURI...

CITY           SKY/WX    TMP DP  RH WIND       PRES   REMARKS
SPRINGFIELD    MOCLDY    67  63  87 S15       29.48F
JOPLIN         CLOUDY    72  64  76 S21G37    29.44F
BRANSON        CLEAR     70  63  78 S12G23    29.54F

$$
MOZ032>034-039>042-045>050-055>058-069>072-180800-
...CENTRAL MISSOURI...

CITY           SKY/WX    TMP DP  RH WIND       PRES   REMARKS
COLUMBIA       MOCLDY    64  60  87 S13       29.45F
JEFFERSON CITY CLOUDY    67  60  78 S9        29.45F
ROLLA          CLEAR     65  60  84 S15G25    29.50F
SEDALIA        CLOUDY    66  63  90 S15       29.42F
WHITEMAN AFB   CLOUDY    65  61  88 S14       29.35F
WARRENSBURG    CLOUDY    63  59  88 S9        29.38F
OSAGE BEACH    MOCLDY    65  60  84 S8        29.47F

$$
MOZ051-052-059>065-180800-
...EAST CENTRAL MISSOURI...

CITY           SKY/WX    TMP DP  RH WIND       PRES   REMARKS
ST LOUIS INTL  CLOUDY    61  57  87 S12       29.53F
SPIRIT OF STL  MOCLDY    64  59  83 SE5       29.51F
ST CHARLES     CLOUDY    58  54  86 E3        29.51F

$$
MOZ072>076-082>087-097>100-106>115-180800-
...SOUTH CENTRAL AND SOUTHEAST MISSOURI...

CITY           SKY/WX    TMP DP  RH WIND       PRES   REMARKS
CAPE GIRARDEAU CLOUDY    65  55  70 S16G32    29.64F
FARMINGTON     CLOUDY    65  60  84 S14       29.58F
POPLAR BLUFF   CLOUDY    66  58  75 S9        29.63F
WEST PLAINS    CLOUDY    65  61  87 S8        29.58F

$$



USA.gov is the U.S. government's official web portal to all federal, state and local government web resources and services.